Terminal Aerodrome Forecast
Issued by NWS

Home | Current Version | Previous Version | Text Only | Print | Product List | Glossary On
Versions: 1 2 3 4 5 6 7 8 9 10 11 12 13 14
000
FTUS45 KTFX 230800 AAB
TAFHLN
TAF AMD
KHLN 230817Z 2308/2406 VRB06KT P6SM SCT050 SCT090
     FM231200 VRB06KT P6SM SCT050 BKN090
      TEMPO 2312/2315 -TSRA BKN040CB
     FM231500 VRB06KT P6SM SCT150
     FM240000 VRB06KT P6SM SCT090 BKN180 PROB30 2400/2406 VRB20G40KT
      5SM -TSRA BKN050CB=

USA.gov is the U.S. government's official web portal to all federal, state and local government web resources and services.